| time (UTC) | temp F | wind direction | speed MPH | gust MPH | rain 1hr in | rain 24hr in | rain mn in | humidity % | barometer mb |
| 20260503013028 | 64 | 264 | 2.0 | 7.0 | 0.00 | 0.00 | 0.00 | 82 | 1010.8 |
| 20260503012527 | 64 | 242 | 0.0 | 4.0 | 0.00 | 0.00 | 0.00 | 82 | 1010.6 |
| 20260503012049 | 64 | 245 | 1.0 | 4.0 | 0.00 | 0.00 | 0.00 | 82 | 1010.6 |
| 20260503011529 | 64 | 240 | 1.0 | 5.0 | 0.00 | 0.00 | 0.00 | 82 | 1010.5 |
| 20260503011036 | 64 | 240 | 1.0 | 6.0 | 0.00 | 0.00 | 0.00 | 81 | 1010.5 |
| 20260503010542 | 64 | 254 | 3.0 | 6.0 | 0.00 | 0.00 | 0.00 | 81 | 1010.5 |
| 20260503010021 | 65 | 238 | 2.0 | 5.0 | 0.00 | 0.00 | 0.00 | 81 | 1010.5 |
| 20260503005522 | 64 | 267 | 2.0 | 5.0 | 0.00 | 0.00 | 0.00 | 81 | 1010.6 |
| 20260503005022 | 65 | 244 | 3.0 | 6.0 | 0.00 | 0.00 | 0.00 | 81 | 1010.6 |
| 20260503004545 | 65 | 259 | 2.0 | 6.0 | 0.00 | 0.00 | 0.00 | 81 | 1010.6 |
| 20260503004026 | 65 | 261 | 2.0 | 6.0 | 0.00 | 0.00 | 0.00 | 81 | 1010.5 |
| 20260503003532 | 65 | 249 | 3.0 | 6.0 | 0.00 | 0.00 | 0.00 | 81 | 1010.6 |
| 20260503003025 | 65 | 275 | 2.0 | 8.0 | 0.00 | 0.00 | 0.00 | 81 | 1010.6 |
| 20260503002525 | 65 | 325 | 4.0 | 8.0 | 0.00 | 0.00 | 0.00 | 81 | 1010.6 |
| 20260503002025 | 65 | 297 | 3.0 | 8.0 | 0.00 | 0.00 | 0.00 | 81 | 1010.7 |
| 20260503001524 | 65 | 294 | 4.0 | 8.0 | 0.00 | 0.00 | 0.00 | 80 | 1010.8 |
| 20260503001022 | 65 | 333 | 4.0 | 7.0 | 0.00 | 0.00 | 0.00 | 80 | 1010.7 |
| 20260503000528 | 65 | 273 | 4.0 | 9.0 | 0.00 | 0.00 | 0.00 | 81 | 1010.8 |
| 20260503000034 | 66 | 298 | 4.0 | 9.0 | 0.00 | 0.00 | 0.00 | 81 | 1010.7 |
| 20260502235556 | 66 | 317 | 4.0 | 7.0 | 0.00 | 0.00 | 0.00 | 80 | 1010.7 |
| 20260502235038 | 66 | 288 | 3.0 | 7.0 | 0.00 | 0.00 | 0.00 | 80 | 1010.8 |
| 20260502234517 | 66 | 300 | 3.0 | 8.0 | 0.00 | 0.00 | 0.00 | 80 | 1010.7 |
| 20260502234017 | 66 | 260 | 4.0 | 8.0 | 0.00 | 0.00 | 0.00 | 80 | 1010.8 |
| 20260502233522 | 66 | 271 | 3.0 | 7.0 | 0.00 | 0.00 | 0.00 | 80 | 1010.7 |
| 20260502233026 | 66 | 269 | 4.0 | 11.0 | 0.00 | 0.00 | 0.00 | 80 | 1010.6 |
| 20260502232533 | 66 | 319 | 3.0 | 11.0 | 0.00 | 0.00 | 0.00 | 80 | 1010.7 |
| 20260502232035 | 67 | 313 | 4.0 | 11.0 | 0.00 | 0.00 | 0.00 | 79 | 1010.7 |
| 20260502231534 | 67 | 331 | 4.0 | 8.0 | 0.00 | 0.00 | 0.00 | 79 | 1010.7 |
| 20260502231038 | 67 | 312 | 4.0 | 9.0 | 0.00 | 0.00 | 0.00 | 79 | 1010.8 |
| 20260502230540 | 67 | 261 | 3.0 | 9.0 | 0.00 | 0.00 | 0.00 | 79 | 1010.8 |
| 20260502230021 | 67 | 272 | 3.0 | 8.0 | 0.00 | 0.00 | 0.00 | 79 | 1010.8 |
| 20260502225521 | 67 | 308 | 3.0 | 8.0 | 0.00 | 0.00 | 0.00 | 79 | 1010.9 |
| 20260502225024 | 67 | 273 | 5.0 | 8.0 | 0.00 | 0.00 | 0.00 | 79 | 1011.0 |
| 20260502224526 | 67 | 269 | 4.0 | 9.0 | 0.00 | 0.00 | 0.00 | 79 | 1011.1 |
| 20260502224023 | 67 | 298 | 5.0 | 12.0 | 0.00 | 0.00 | 0.00 | 79 | 1011.3 |
| 20260502223524 | 67 | 323 | 4.0 | 12.0 | 0.00 | 0.00 | 0.00 | 78 | 1011.4 |
| 20260502223034 | 68 | 339 | 4.0 | 8.0 | 0.00 | 0.00 | 0.00 | 78 | 1011.4 |
| 20260502222537 | 68 | 271 | 5.0 | 9.0 | 0.00 | 0.00 | 0.00 | 77 | 1011.5 |
| 20260502222040 | 68 | 276 | 5.0 | 10.0 | 0.00 | 0.00 | 0.00 | 77 | 1011.7 |
| 20260502221522 | 68 | 272 | 5.0 | 10.0 | 0.00 | 0.00 | 0.00 | 77 | 1011.8 |
| 20260502221027 | 68 | 299 | 5.0 | 10.0 | 0.00 | 0.00 | 0.00 | 77 | 1011.8 |
| 20260502220528 | 68 | 321 | 5.0 | 10.0 | 0.00 | 0.00 | 0.00 | 78 | 1011.9 |
| 20260502220034 | 68 | 268 | 5.0 | 11.0 | 0.00 | 0.00 | 0.00 | 77 | 1011.8 |
| 20260502215535 | 68 | 252 | 5.0 | 11.0 | 0.00 | 0.00 | 0.00 | 78 | 1011.9 |
| 20260502215037 | 68 | 310 | 5.0 | 10.0 | 0.00 | 0.00 | 0.00 | 77 | 1011.9 |
| 20260502214545 | 69 | 333 | 5.0 | 10.0 | 0.00 | 0.00 | 0.00 | 77 | 1011.9 |
| 20260502214030 | 69 | 292 | 5.0 | 9.0 | 0.00 | 0.00 | 0.00 | 76 | 1012.0 |
| 20260502213551 | 69 | 290 | 5.0 | 9.0 | 0.00 | 0.00 | 0.00 | 76 | 1012.0 |
| 20260502213030 | 69 | 260 | 5.0 | 11.0 | 0.00 | 0.00 | 0.00 | 76 | 1012.2 |
| 20260502212536 | 69 | 312 | 5.0 | 11.0 | 0.00 | 0.00 | 0.00 | 75 | 1012.3 |
| 20260502212019 | 70 | 333 | 6.0 | 11.0 | 0.00 | 0.00 | 0.00 | 76 | 1012.3 |
| 20260502211520 | 70 | 291 | 5.0 | 11.0 | 0.00 | 0.00 | 0.00 | 76 | 1012.3 |
| 20260502211046 | 70 | 332 | 6.0 | 12.0 | 0.00 | 0.00 | 0.00 | 75 | 1012.2 |
| 20260502210524 | 70 | 263 | 6.0 | 13.0 | 0.00 | 0.00 | 0.00 | 76 | 1012.2 |
| 20260502210026 | 70 | 285 | 7.0 | 13.0 | 0.00 | 0.00 | 0.00 | 76 | 1012.3 |
| 20260502205529 | 70 | 329 | 7.0 | 13.0 | 0.00 | 0.00 | 0.00 | 77 | 1012.3 |
| 20260502205030 | 69 | 298 | 5.0 | 13.0 | 0.00 | 0.00 | 0.00 | 77 | 1012.4 |
| 20260502204530 | 69 | 319 | 7.0 | 11.0 | 0.00 | 0.00 | 0.00 | 76 | 1012.3 |
| 20260502204030 | 69 | 276 | 5.0 | 10.0 | 0.00 | 0.00 | 0.00 | 76 | 1012.3 |
| 20260502203531 | 70 | 314 | 5.0 | 13.0 | 0.00 | 0.00 | 0.00 | 76 | 1012.4 |
| 20260502203029 | 69 | 323 | 5.0 | 13.0 | 0.00 | 0.00 | 0.00 | 77 | 1012.5 |
| 20260502202531 | 69 | 348 | 6.0 | 11.0 | 0.00 | 0.00 | 0.00 | 76 | 1012.4 |
| 20260502202030 | 69 | 288 | 6.0 | 11.0 | 0.00 | 0.00 | 0.00 | 77 | 1012.5 |
| 20260502201534 | 69 | 265 | 6.0 | 11.0 | 0.00 | 0.00 | 0.00 | 77 | 1012.6 |
| 20260502201058 | 69 | 290 | 4.0 | 9.0 | 0.00 | 0.00 | 0.00 | 77 | 1012.3 |
| 20260502200520 | 69 | 294 | 3.0 | 11.0 | 0.00 | 0.00 | 0.00 | 78 | 1012.3 |
| 20260502200024 | 69 | 265 | 6.0 | 12.0 | 0.00 | 0.00 | 0.00 | 78 | 1012.5 |
| 20260502195525 | 69 | 286 | 6.0 | 12.0 | 0.00 | 0.00 | 0.00 | 78 | 1012.7 |
| 20260502195024 | 69 | 331 | 6.0 | 11.0 | 0.00 | 0.00 | 0.00 | 78 | 1012.7 |
| 20260502194528 | 68 | 285 | 5.0 | 15.0 | 0.00 | 0.00 | 0.00 | 79 | 1012.8 |
| 20260502194026 | 68 | 283 | 7.0 | 15.0 | 0.00 | 0.00 | 0.00 | 79 | 1013.0 |
| 20260502193526 | 68 | 325 | 6.0 | 13.0 | 0.00 | 0.00 | 0.00 | 78 | 1013.0 |
| 20260502193028 | 68 | 327 | 5.0 | 9.0 | 0.00 | 0.00 | 0.00 | 80 | 1012.9 |
| 20260502192530 | 68 | 319 | 5.0 | 10.0 | 0.00 | 0.00 | 0.00 | 81 | 1012.9 |
| 20260502192029 | 67 | 273 | 6.0 | 10.0 | 0.00 | 0.00 | 0.00 | 81 | 1013.1 |
| 20260502191529 | 67 | 311 | 5.0 | 10.0 | 0.00 | 0.00 | 0.00 | 80 | 1013.2 |
| 20260502191034 | 68 | 307 | 4.0 | 10.0 | 0.00 | 0.00 | 0.00 | 81 | 1013.3 |
| 20260502190530 | 68 | 300 | 5.0 | 10.0 | 0.00 | 0.00 | 0.00 | 81 | 1013.5 |
| 20260502190034 | 67 | 257 | 5.0 | 10.0 | 0.00 | 0.00 | 0.00 | 81 | 1013.6 |
| 20260502185539 | 67 | 337 | 5.0 | 10.0 | 0.00 | 0.00 | 0.00 | 82 | 1013.5 |
| 20260502185100 | 67 | 317 | 5.0 | 9.0 | 0.00 | 0.00 | 0.00 | 83 | 1013.5 |
| 20260502184517 | 66 | 299 | 4.0 | 9.0 | 0.00 | 0.00 | 0.00 | 83 | 1013.4 |
| 20260502184023 | 66 | 305 | 4.0 | 9.0 | 0.00 | 0.00 | 0.00 | 83 | 1013.5 |
| 20260502183522 | 66 | 298 | 4.0 | 9.0 | 0.00 | 0.00 | 0.00 | 83 | 1013.5 |
| 20260502183044 | 66 | 317 | 4.0 | 9.0 | 0.00 | 0.00 | 0.00 | 84 | 1013.7 |
| 20260502182524 | 66 | 273 | 4.0 | 9.0 | 0.00 | 0.00 | 0.00 | 84 | 1013.8 |
| 20260502182028 | 66 | 292 | 4.0 | 9.0 | 0.00 | 0.00 | 0.00 | 83 | 1013.8 |
| 20260502181528 | 66 | 313 | 4.0 | 8.0 | 0.00 | 0.00 | 0.00 | 83 | 1014.0 |
| 20260502181032 | 66 | 277 | 4.0 | 7.0 | 0.00 | 0.00 | 0.00 | 83 | 1013.9 |
| 20260502180529 | 66 | 278 | 3.0 | 7.0 | 0.00 | 0.00 | 0.00 | 83 | 1013.9 |
| 20260502164026 | 65 | 55 | 1.0 | 3.0 | 0.00 | 0.00 | 0.00 | 84 | 1014.2 |
| 20260502163525 | 64 | 55 | 0.0 | 3.0 | 0.00 | 0.00 | 0.00 | 84 | 1014.3 |
| 20260502163049 | 64 | 55 | 1.0 | 3.0 | 0.00 | 0.00 | 0.00 | 84 | 1014.4 |
| 20260502162527 | 64 | 56 | 0.0 | 4.0 | 0.00 | 0.00 | 0.00 | 85 | 1014.4 |
| 20260502162028 | 64 | 56 | 0.0 | 4.0 | 0.00 | 0.00 | 0.00 | 85 | 1014.2 |
| 20260502161528 | 64 | 56 | 3.0 | 4.0 | 0.00 | 0.00 | 0.00 | 85 | 1014.2 |
| 20260502161029 | 64 | 50 | 2.0 | 4.0 | 0.00 | 0.00 | 0.00 | 86 | 1014.2 |
| 20260502160531 | 64 | 50 | 2.0 | 4.0 | 0.00 | 0.00 | 0.00 | 86 | 1014.3 |
| 20260502152028 | 63 | 52 | 1.0 | 4.0 | 0.00 | 0.00 | 0.00 | 87 | 1014.3 |
| 20260502151528 | 63 | 54 | 2.0 | 4.0 | 0.00 | 0.00 | 0.00 | 87 | 1014.2 |
| 20260502151028 | 63 | 47 | 2.0 | 4.0 | 0.00 | 0.00 | 0.00 | 88 | 1014.2 |
| 20260502150529 | 63 | 44 | 3.0 | 4.0 | 0.00 | 0.00 | 0.00 | 88 | 1014.2 |
| 20260502130520 | 63 | 334 | 0.0 | 1.0 | 0.00 | 0.00 | 0.00 | 87 | 1013.3 |
| 20260502123529 | 63 | 335 | 0.0 | 1.0 | 0.00 | 0.00 | 0.00 | 87 | 1013.2 |
| 20260502123024 | 63 | 335 | 0.0 | 1.0 | 0.00 | 0.00 | 0.00 | 87 | 1013.2 |
| 20260502122529 | 63 | 335 | 0.0 | 2.0 | 0.00 | 0.00 | 0.00 | 87 | 1013.1 |
| 20260502122028 | 63 | 335 | 0.0 | 2.0 | 0.00 | 0.00 | 0.00 | 87 | 1013.1 |
| 20260502121528 | 63 | 335 | 0.0 | 2.0 | 0.00 | 0.00 | 0.00 | 87 | 1013.1 |
| 20260502121028 | 63 | 335 | 0.0 | 3.0 | 0.00 | 0.00 | 0.00 | 87 | 1013.1 |
| 20260502120530 | 63 | 335 | 1.0 | 3.0 | 0.00 | 0.00 | 0.00 | 87 | 1013.1 |
| 20260502115536 | 63 | 39 | 1.0 | 2.0 | 0.00 | 0.00 | 0.00 | 87 | 1013.0 |
| 20260502115035 | 63 | 39 | 0.0 | 2.0 | 0.00 | 0.00 | 0.00 | 87 | 1012.9 |
| 20260502114537 | 63 | 39 | 1.0 | 4.0 | 0.00 | 0.00 | 0.00 | 87 | 1012.8 |
| 20260502114019 | 63 | 39 | 2.0 | 4.0 | 0.00 | 0.00 | 0.00 | 86 | 1012.8 |
| 20260502113542 | 63 | 39 | 1.0 | 3.0 | 0.00 | 0.00 | 0.00 | 86 | 1012.8 |
| 20260502113045 | 63 | 39 | 2.0 | 3.0 | 0.00 | 0.00 | 0.00 | 86 | 1012.8 |
| 20260502112524 | 63 | 340 | 1.0 | 2.0 | 0.00 | 0.00 | 0.00 | 86 | 1012.8 |
| 20260502112024 | 63 | 335 | 1.0 | 2.0 | 0.00 | 0.00 | 0.00 | 86 | 1012.8 |
| 20260502111522 | 63 | 334 | 0.0 | 1.0 | 0.00 | 0.00 | 0.00 | 86 | 1012.9 |
| 20260502111021 | 63 | 334 | 0.0 | 1.0 | 0.00 | 0.00 | 0.00 | 86 | 1012.9 |
| 20260502110526 | 63 | 334 | 0.0 | 1.0 | 0.00 | 0.00 | 0.00 | 86 | 1012.8 |
| 20260502110029 | 63 | 334 | 0.0 | 1.0 | 0.00 | 0.00 | 0.00 | 86 | 1012.8 |
| 20260502105526 | 63 | 334 | 0.0 | 1.0 | 0.00 | 0.00 | 0.00 | 86 | 1012.8 |
| 20260502105024 | 63 | 334 | 0.0 | 1.0 | 0.00 | 0.00 | 0.00 | 86 | 1012.8 |
| 20260502104526 | 63 | 334 | 0.0 | 1.0 | 0.00 | 0.00 | 0.00 | 86 | 1012.7 |
| 20260502104026 | 63 | 334 | 0.0 | 1.0 | 0.00 | 0.00 | 0.00 | 86 | 1012.7 |
| 20260502103529 | 63 | 334 | 0.0 | 2.0 | 0.00 | 0.00 | 0.00 | 86 | 1012.6 |
| 20260502103026 | 63 | 334 | 0.0 | 2.0 | 0.00 | 0.00 | 0.00 | 86 | 1012.7 |
| 20260502102538 | 63 | 334 | 1.0 | 2.0 | 0.00 | 0.00 | 0.00 | 86 | 1012.6 |
| 20260502102022 | 63 | 334 | 1.0 | 2.0 | 0.00 | 0.00 | 0.00 | 86 | 1012.6 |
| 20260502101547 | 63 | 334 | 1.0 | 2.0 | 0.00 | 0.00 | 0.00 | 86 | 1012.6 |
| 20260502101028 | 63 | 335 | 0.0 | 2.0 | 0.00 | 0.00 | 0.00 | 86 | 1012.6 |
| 20260502100526 | 63 | 335 | 0.0 | 3.0 | 0.00 | 0.00 | 0.00 | 86 | 1012.5 |
| 20260502091036 | 63 | 5 | 0.0 | 2.0 | 0.00 | 0.00 | 0.00 | 85 | 1012.7 |
| 20260502090524 | 63 | 5 | 0.0 | 1.0 | 0.00 | 0.00 | 0.00 | 85 | 1012.6 |
| 20260502071529 | 64 | 44 | 0.0 | 2.0 | 0.00 | 0.00 | 0.00 | 85 | 1013.4 |
| 20260502071029 | 64 | 44 | 1.0 | 2.0 | 0.00 | 0.00 | 0.00 | 85 | 1013.3 |
| 20260502070531 | 64 | 44 | 1.0 | 3.0 | 0.00 | 0.00 | 0.00 | 85 | 1013.3 |
| 20260502070027 | 64 | 44 | 1.0 | 3.0 | 0.00 | 0.00 | 0.00 | 85 | 1013.3 |
| 20260502065525 | 64 | 44 | 2.0 | 3.0 | 0.00 | 0.00 | 0.00 | 85 | 1013.3 |
| 20260502065032 | 64 | 355 | 0.0 | 1.0 | 0.00 | 0.00 | 0.00 | 85 | 1013.4 |
| 20260502064532 | 64 | 355 | 0.0 | 3.0 | 0.00 | 0.00 | 0.00 | 85 | 1013.4 |
| 20260502064028 | 64 | 355 | 1.0 | 3.0 | 0.00 | 0.00 | 0.00 | 85 | 1013.4 |
| 20260502063528 | 64 | 355 | 0.0 | 3.0 | 0.00 | 0.00 | 0.00 | 85 | 1013.4 |
| 20260502063028 | 64 | 355 | 0.0 | 3.0 | 0.00 | 0.00 | 0.00 | 85 | 1013.4 |
| 20260502062528 | 64 | 355 | 1.0 | 3.0 | 0.00 | 0.00 | 0.00 | 85 | 1013.3 |
| 20260502062029 | 64 | 355 | 0.0 | 2.0 | 0.00 | 0.00 | 0.00 | 84 | 1013.3 |
| 20260502061532 | 64 | 355 | 0.0 | 1.0 | 0.00 | 0.00 | 0.00 | 84 | 1013.3 |
| 20260502061034 | 64 | 355 | 0.0 | 2.0 | 0.00 | 0.00 | 0.00 | 84 | 1013.3 |
| 20260502060551 | 64 | 355 | 0.0 | 2.0 | 0.00 | 0.00 | 0.00 | 84 | 1013.4 |
| 20260502060034 | 64 | 355 | 0.0 | 1.0 | 0.00 | 0.00 | 0.00 | 84 | 1013.5 |
| 20260502055535 | 64 | 355 | 0.0 | 3.0 | 0.00 | 0.00 | 0.00 | 84 | 1013.4 |
| 20260502055058 | 64 | 355 | 0.0 | 3.0 | 0.00 | 0.00 | 0.00 | 84 | 1013.3 |
| 20260502054541 | 64 | 276 | 1.0 | 2.0 | 0.00 | 0.00 | 0.00 | 84 | 1013.4 |
| 20260502054041 | 64 | 276 | 0.0 | 2.0 | 0.00 | 0.00 | 0.00 | 84 | 1013.4 |
| 20260502053519 | 64 | 276 | 0.0 | 2.0 | 0.00 | 0.00 | 0.00 | 84 | 1013.4 |
| 20260502053037 | 64 | 276 | 0.0 | 2.0 | 0.00 | 0.00 | 0.00 | 84 | 1013.4 |
| 20260502052537 | 64 | 276 | 1.0 | 2.0 | 0.00 | 0.00 | 0.00 | 84 | 1013.4 |
| 20260502052038 | 64 | 276 | 0.0 | 0.0 | 0.00 | 0.00 | 0.00 | 84 | 1013.5 |
| 20260502051538 | 64 | 276 | 0.0 | 3.0 | 0.00 | 0.00 | 0.00 | 84 | 1013.4 |
| 20260502051019 | 64 | 276 | 1.0 | 3.0 | 0.00 | 0.00 | 0.00 | 84 | 1013.4 |
| 20260502050520 | 64 | 276 | 1.0 | 3.0 | 0.00 | 0.00 | 0.00 | 84 | 1013.4 |
| 20260502050019 | 64 | 257 | 0.0 | 1.0 | 0.00 | 0.00 | 0.00 | 84 | 1013.4 |
| 20260502045543 | 64 | 257 | 0.0 | 1.0 | 0.00 | 0.00 | 0.00 | 84 | 1013.4 |
| 20260502045023 | 64 | 257 | 0.0 | 4.0 | 0.00 | 0.00 | 0.00 | 84 | 1013.4 |
| 20260502044546 | 64 | 257 | 0.0 | 4.0 | 0.00 | 0.00 | 0.00 | 84 | 1013.4 |
| 20260502044027 | 64 | 257 | 1.0 | 4.0 | 0.00 | 0.00 | 0.00 | 84 | 1013.3 |
| 20260502043530 | 64 | 257 | 1.0 | 2.0 | 0.00 | 0.00 | 0.00 | 84 | 1013.3 |
| 20260502043030 | 64 | 257 | 0.0 | 4.0 | 0.00 | 0.00 | 0.00 | 84 | 1013.3 |
| 20260502042530 | 64 | 257 | 2.0 | 4.0 | 0.00 | 0.00 | 0.00 | 84 | 1013.3 |
| 20260502042034 | 64 | 266 | 1.0 | 4.0 | 0.00 | 0.00 | 0.00 | 84 | 1013.2 |
| 20260502041534 | 64 | 266 | 0.0 | 1.0 | 0.00 | 0.00 | 0.00 | 84 | 1013.2 |
| 20260502041031 | 64 | 266 | 0.0 | 2.0 | 0.00 | 0.00 | 0.00 | 84 | 1013.1 |
| 20260502040551 | 64 | 266 | 0.0 | 3.0 | 0.00 | 0.00 | 0.00 | 84 | 1013.0 |
| 20260502040030 | 64 | 266 | 1.0 | 3.0 | 0.00 | 0.00 | 0.00 | 84 | 1013.1 |
| 20260502035532 | 64 | 266 | 1.0 | 3.0 | 0.00 | 0.00 | 0.00 | 84 | 1013.0 |
| 20260502035034 | 64 | 266 | 0.0 | 3.0 | 0.00 | 0.00 | 0.00 | 84 | 1012.9 |
| 20260502034539 | 64 | 266 | 1.0 | 2.0 | 0.00 | 0.00 | 0.00 | 84 | 1012.8 |
| 20260502034043 | 64 | 266 | 0.0 | 3.0 | 0.00 | 0.00 | 0.00 | 84 | 1012.7 |
| 20260502033525 | 64 | 266 | 0.0 | 3.0 | 0.00 | 0.00 | 0.00 | 84 | 1012.7 |
| 20260502033039 | 64 | 266 | 1.0 | 3.0 | 0.00 | 0.00 | 0.00 | 84 | 1012.6 |
| 20260502032520 | 64 | 266 | 1.0 | 4.0 | 0.00 | 0.00 | 0.00 | 84 | 1012.5 |
| 20260502032024 | 64 | 266 | 1.0 | 4.0 | 0.00 | 0.00 | 0.00 | 84 | 1012.4 |
| 20260502031549 | 64 | 266 | 2.0 | 4.0 | 0.00 | 0.00 | 0.00 | 84 | 1012.5 |
| 20260502031026 | 64 | 264 | 0.0 | 3.0 | 0.00 | 0.00 | 0.00 | 84 | 1012.5 |
| 20260502030552 | 64 | 264 | 1.0 | 5.0 | 0.00 | 0.00 | 0.00 | 84 | 1012.5 |
| 20260502030028 | 64 | 279 | 1.0 | 5.0 | 0.00 | 0.00 | 0.00 | 84 | 1012.5 |
| 20260502025554 | 64 | 271 | 2.0 | 5.0 | 0.00 | 0.00 | 0.00 | 84 | 1012.4 |
| 20260502025056 | 64 | 278 | 2.0 | 5.0 | 0.00 | 0.00 | 0.00 | 83 | 1012.4 |
| 20260502024537 | 64 | 273 | 2.0 | 5.0 | 0.00 | 0.00 | 0.00 | 83 | 1012.4 |
| 20260502024039 | 64 | 306 | 2.0 | 5.0 | 0.00 | 0.00 | 0.00 | 83 | 1012.3 |
| 20260502023535 | 64 | 304 | 1.0 | 5.0 | 0.00 | 0.00 | 0.00 | 82 | 1012.3 |
| 20260502023056 | 64 | 289 | 0.0 | 5.0 | 0.00 | 0.00 | 0.00 | 82 | 1012.3 |
| 20260502022543 | 65 | 271 | 2.0 | 7.0 | 0.00 | 0.00 | 0.00 | 81 | 1012.2 |
| 20260502022027 | 65 | 292 | 3.0 | 7.0 | 0.00 | 0.00 | 0.00 | 81 | 1012.2 |
| 20260502021535 | 65 | 300 | 2.0 | 8.0 | 0.00 | 0.00 | 0.00 | 81 | 1012.2 |
| 20260502021035 | 65 | 260 | 3.0 | 8.0 | 0.00 | 0.00 | 0.00 | 81 | 1012.1 |
| 20260502020531 | 65 | 315 | 3.0 | 6.0 | 0.00 | 0.00 | 0.00 | 80 | 1012.0 |
| 20260502020020 | 66 | 279 | 3.0 | 8.0 | 0.00 | 0.00 | 0.00 | 80 | 1012.1 |
| 20260502015533 | 66 | 281 | 4.0 | 8.0 | 0.00 | 0.00 | 0.00 | 80 | 1012.0 |
| 20260502015028 | 66 | 320 | 3.0 | 9.0 | 0.00 | 0.00 | 0.00 | 79 | 1012.1 |
| 20260502014533 | 66 | 317 | 4.0 | 9.0 | 0.00 | 0.00 | 0.00 | 78 | 1012.1 |
| 20260502014029 | 67 | 304 | 4.0 | 8.0 | 0.00 | 0.00 | 0.00 | 78 | 1012.0 |
| 20260502013521 | 67 | 277 | 4.0 | 7.0 | 0.00 | 0.00 | 0.00 | 76 | 1011.8 |